Location: Lafig�re
(44.4503°N, 4.0357°E)
Time: 23:45:07
(UTC+00:00)

BlueWalker 3 - Pass Details

Date: 07 December 2022
Orbit: 499 x 517 km, 53.2° (Epoch: 05 February)

Event Time Altitude Azimuth Distance (km) Brightness Sun altitude
Rises 17:47:25 0° 305° (NW) 2,628 6.2 -17.7°
Reaches altitude 10° 17:49:42 10° 311° (NW) 1,735 5.1 -18.1°
Maximum altitude 17:53:29 45° 26° (NNE) 702 2.3 -18.8°
Enters shadow 17:53:43 44° 37° (NE) 709 2.3 -18.8°
